Time,TemperatureF,DewpointF,PressureIn,WindDirection,WindDirectionDegrees,WindSpeedMPH,WindSpeedGustMPH,Humidity,HourlyPrecipIn,Conditions,Clouds,dailyrainin,SoftwareType,DateUTC
2013-05-11 00:01:00,61.5,60.6,30.09,South,180,1.0,2.0,97,0.00,,,0.00,meteohub,2013-05-11 07:01:00,
2013-05-11 00:06:00,61.5,61.0,30.09,West,270,2.0,2.0,98,0.00,,,0.00,meteohub,2013-05-11 07:06:00,
2013-05-11 00:11:00,61.5,61.0,30.08,West,270,2.0,2.0,98,0.00,,,0.00,meteohub,2013-05-11 07:11:00,
2013-05-11 00:16:00,61.3,60.8,30.08,West,270,2.0,2.0,98,0.00,,,0.00,meteohub,2013-05-11 07:16:00,
2013-05-11 00:21:00,61.3,60.8,30.09,West,270,2.0,2.0,98,0.00,,,0.00,meteohub,2013-05-11 07:21:00,
2013-05-11 00:27:00,61.3,60.8,30.09,West,270,0.0,3.0,98,0.00,,,0.00,meteohub,2013-05-11 07:27:00,
2013-05-11 00:32:00,61.2,60.6,30.09,West,270,2.0,3.0,98,0.00,,,0.00,meteohub,2013-05-11 07:32:00,
2013-05-11 00:37:00,61.3,60.8,30.09,West,270,2.0,3.0,98,0.00,,,0.00,meteohub,2013-05-11 07:37:00,
2013-05-11 00:41:00,61.3,60.4,30.10,West,270,1.0,4.0,97,0.00,,,0.00,meteohub,2013-05-11 07:41:00,
2013-05-11 00:47:00,61.3,60.4,30.09,West,270,2.0,4.0,97,0.00,,,0.00,meteohub,2013-05-11 07:47:00,
2013-05-11 00:51:00,61.3,60.4,30.09,West,270,3.0,4.0,97,0.00,,,0.00,meteohub,2013-05-11 07:51:00,
2013-05-11 00:56:00,61.3,60.4,30.09,West,270,2.0,3.0,97,0.00,,,0.00,meteohub,2013-05-11 07:56:00,
2013-05-11 01:01:00,61.3,60.4,30.09,West,270,2.0,3.0,97,0.00,,,0.00,meteohub,2013-05-11 08:01:00,
2013-05-11 01:06:00,61.3,60.4,30.09,West,270,2.0,3.0,97,0.00,,,0.00,meteohub,2013-05-11 08:06:00,
2013-05-11 01:11:00,61.3,60.4,30.09,West,270,2.0,4.0,97,0.00,,,0.00,meteohub,2013-05-11 08:11:00,
2013-05-11 01:16:00,61.2,60.3,30.09,West,270,3.0,4.0,97,0.00,,,0.00,meteohub,2013-05-11 08:16:00,
2013-05-11 01:21:00,61.2,60.3,30.09,West,270,1.0,4.0,97,0.00,,,0.00,meteohub,2013-05-11 08:21:00,
2013-05-11 01:26:00,60.8,59.9,30.08,West,270,1.0,3.0,97,0.00,,,0.00,meteohub,2013-05-11 08:26:00,
2013-05-11 01:31:00,60.6,59.7,30.09,West,270,0.0,3.0,97,0.00,,,0.00,meteohub,2013-05-11 08:31:00,
2013-05-11 01:36:00,60.4,59.5,30.09,West,270,0.0,2.0,97,0.00,,,0.00,meteohub,2013-05-11 08:36:00,
2013-05-11 01:41:00,60.3,59.7,30.09,West,270,0.0,1.0,98,0.00,,,0.00,meteohub,2013-05-11 08:41:00,
2013-05-11 01:47:00,60.4,59.9,30.09,West,270,2.0,2.0,98,0.00,,,0.00,meteohub,2013-05-11 08:47:00,
2013-05-11 01:52:00,60.4,59.9,30.09,West,270,0.0,2.0,98,0.00,,,0.00,meteohub,2013-05-11 08:52:00,
2013-05-11 01:56:00,60.4,60.1,30.09,West,270,0.0,2.0,99,0.00,,,0.00,meteohub,2013-05-11 08:56:00,
2013-05-11 02:01:00,60.1,59.7,30.09,West,270,0.0,2.0,99,0.00,,,0.00,meteohub,2013-05-11 09:01:00,
2013-05-11 02:07:00,59.9,59.5,30.08,West,270,0.0,2.0,99,0.00,,,0.00,meteohub,2013-05-11 09:07:00,
2013-05-11 02:11:00,59.5,59.0,30.08,West,270,0.0,0.0,98,0.00,,,0.00,meteohub,2013-05-11 09:11:00,
2013-05-11 02:16:00,59.5,59.2,30.09,West,270,0.0,0.0,99,0.00,,,0.00,meteohub,2013-05-11 09:16:00,
2013-05-11 02:21:00,59.7,59.4,30.09,West,270,1.0,0.0,99,0.00,,,0.00,meteohub,2013-05-11 09:21:00,
2013-05-11 02:26:00,59.9,59.5,30.09,West,270,0.0,1.0,99,0.00,,,0.00,meteohub,2013-05-11 09:26:00,
2013-05-11 02:31:00,60.1,59.7,30.08,West,270,0.0,1.0,99,0.00,,,0.00,meteohub,2013-05-11 09:31:00,
2013-05-11 02:36:00,59.9,59.5,30.08,West,270,0.0,1.0,99,0.00,,,0.00,meteohub,2013-05-11 09:36:00,
2013-05-11 02:41:00,59.7,59.4,30.08,West,270,0.0,0.0,99,0.00,,,0.00,meteohub,2013-05-11 09:41:00,
2013-05-11 02:46:00,59.7,59.4,30.07,West,270,0.0,0.0,99,0.00,,,0.00,meteohub,2013-05-11 09:46:00,
2013-05-11 02:51:00,59.9,59.5,30.07,West,270,0.0,0.0,99,0.00,,,0.00,meteohub,2013-05-11 09:51:00,
2013-05-11 02:56:00,59.9,59.5,30.07,West,270,0.0,0.0,99,0.00,,,0.00,meteohub,2013-05-11 09:56:00,
2013-05-11 03:01:00,59.7,59.4,30.07,West,270,0.0,0.0,99,0.00,,,0.00,meteohub,2013-05-11 10:01:00,
2013-05-11 03:06:00,59.4,59.0,30.07,West,270,0.0,0.0,99,0.00,,,0.00,meteohub,2013-05-11 10:06:00,
2013-05-11 03:11:00,59.4,59.0,30.07,West,270,0.0,0.0,99,0.00,,,0.00,meteohub,2013-05-11 10:11:00,
2013-05-11 03:16:00,59.4,59.0,30.07,West,270,0.0,0.0,99,0.00,,,0.00,meteohub,2013-05-11 10:16:00,
2013-05-11 03:21:00,59.4,59.0,30.07,West,270,0.0,0.0,99,0.00,,,0.00,meteohub,2013-05-11 10:21:00,
2013-05-11 03:26:00,59.4,59.0,30.07,West,270,0.0,0.0,99,0.00,,,0.00,meteohub,2013-05-11 10:26:00,
2013-05-11 03:32:00,59.2,58.8,30.07,West,270,0.0,0.0,99,0.00,,,0.00,meteohub,2013-05-11 10:32:00,
2013-05-11 03:37:00,59.0,58.6,30.07,West,270,0.0,0.0,99,0.00,,,0.00,meteohub,2013-05-11 10:37:00,
2013-05-11 03:41:00,59.0,58.6,30.07,West,270,0.0,0.0,99,0.00,,,0.00,meteohub,2013-05-11 10:41:00,
2013-05-11 03:47:00,59.2,58.8,30.07,West,270,0.0,0.0,99,0.00,,,0.00,meteohub,2013-05-11 10:47:00,
2013-05-11 03:52:00,59.0,58.6,30.07,West,270,0.0,0.0,99,0.00,,,0.00,meteohub,2013-05-11 10:52:00,
2013-05-11 03:57:00,58.8,58.5,30.07,West,270,0.0,0.0,99,0.00,,,0.00,meteohub,2013-05-11 10:57:00,
2013-05-11 04:02:00,58.5,58.1,30.06,West,270,0.0,0.0,99,0.00,,,0.00,meteohub,2013-05-11 11:02:00,
2013-05-11 04:07:00,58.1,57.7,30.06,West,270,0.0,0.0,99,0.00,,,0.00,meteohub,2013-05-11 11:07:00,
2013-05-11 04:12:00,58.1,57.7,30.06,West,270,0.0,0.0,99,0.00,,,0.00,meteohub,2013-05-11 11:12:00,
2013-05-11 04:17:00,58.1,57.7,30.06,West,270,0.0,0.0,99,0.00,,,0.00,meteohub,2013-05-11 11:17:00,
2013-05-11 04:22:00,58.1,57.7,30.06,West,270,0.0,0.0,99,0.00,,,0.00,meteohub,2013-05-11 11:22:00,
2013-05-11 04:27:00,58.1,57.7,30.06,West,270,0.0,0.0,99,0.00,,,0.00,meteohub,2013-05-11 11:27:00,
2013-05-11 04:32:00,57.9,57.6,30.06,West,270,0.0,0.0,99,0.00,,,0.00,meteohub,2013-05-11 11:32:00,
2013-05-11 04:37:00,57.7,57.4,30.06,West,270,0.0,0.0,99,0.00,,,0.00,meteohub,2013-05-11 11:37:00,
2013-05-11 04:42:00,57.9,57.6,30.06,West,270,0.0,0.0,99,0.00,,,0.00,meteohub,2013-05-11 11:42:00,
2013-05-11 04:47:00,58.3,57.9,30.06,West,270,0.0,0.0,99,0.00,,,0.00,meteohub,2013-05-11 11:47:00,
2013-05-11 04:52:00,58.8,58.5,30.06,West,270,0.0,0.0,99,0.00,,,0.00,meteohub,2013-05-11 11:52:00,
2013-05-11 04:57:00,59.0,58.6,30.06,West,270,0.0,0.0,99,0.00,,,0.00,meteohub,2013-05-11 11:57:00,
2013-05-11 05:02:00,59.2,58.8,30.06,West,270,0.0,0.0,99,0.00,,,0.00,meteohub,2013-05-11 12:02:00,
2013-05-11 05:07:00,59.2,58.8,30.06,West,270,0.0,0.0,99,0.00,,,0.00,meteohub,2013-05-11 12:07:00,
2013-05-11 05:12:00,59.4,59.0,30.06,West,270,0.0,0.0,99,0.00,,,0.00,meteohub,2013-05-11 12:12:00,
2013-05-11 05:17:00,59.5,59.2,30.06,West,270,0.0,0.0,99,0.00,,,0.00,meteohub,2013-05-11 12:17:00,
2013-05-11 05:22:00,59.5,59.2,30.06,West,270,0.0,0.0,99,0.00,,,0.00,meteohub,2013-05-11 12:22:00,
2013-05-11 05:27:00,59.7,59.4,30.06,West,270,0.0,0.0,99,0.00,,,0.00,meteohub,2013-05-11 12:27:00,
2013-05-11 05:32:00,59.9,59.5,30.06,West,270,0.0,0.0,99,0.00,,,0.00,meteohub,2013-05-11 12:32:00,
2013-05-11 05:37:00,59.9,59.5,30.06,West,270,0.0,0.0,99,0.00,,,0.00,meteohub,2013-05-11 12:37:00,
2013-05-11 05:42:00,60.1,59.7,30.06,West,270,0.0,0.0,99,0.00,,,0.00,meteohub,2013-05-11 12:42:00,
2013-05-11 05:47:00,60.3,59.9,30.06,West,270,0.0,0.0,99,0.00,,,0.00,meteohub,2013-05-11 12:47:00,
2013-05-11 05:52:00,60.3,59.9,30.06,West,270,0.0,0.0,99,0.00,,,0.00,meteohub,2013-05-11 12:52:00,
2013-05-11 05:57:00,60.3,59.9,30.06,West,270,0.0,0.0,99,0.00,,,0.00,meteohub,2013-05-11 12:57:00,
2013-05-11 06:02:00,60.3,59.9,30.06,West,270,2.0,0.0,99,0.00,,,0.00,meteohub,2013-05-11 13:02:00,
2013-05-11 06:07:00,60.4,60.1,30.06,West,270,0.0,2.0,99,0.00,,,0.00,meteohub,2013-05-11 13:07:00,
2013-05-11 06:12:00,60.4,60.1,30.06,West,270,0.0,2.0,99,0.00,,,0.00,meteohub,2013-05-11 13:12:00,
2013-05-11 06:17:00,60.6,60.3,30.06,West,270,0.0,2.0,99,0.00,,,0.00,meteohub,2013-05-11 13:17:00,
2013-05-11 06:22:00,60.6,60.3,30.07,West,270,1.0,1.0,99,0.00,,,0.00,meteohub,2013-05-11 13:22:00,
2013-05-11 06:27:00,60.8,60.4,30.07,South,180,0.0,1.0,99,0.00,,,0.00,meteohub,2013-05-11 13:27:00,
2013-05-11 06:32:00,61.0,60.6,30.07,SSE,158,1.0,2.0,99,0.00,,,0.00,meteohub,2013-05-11 13:32:00,
2013-05-11 06:37:00,61.3,61.0,30.07,SE,135,0.0,2.0,99,0.00,,,0.00,meteohub,2013-05-11 13:37:00,
2013-05-11 06:42:00,61.5,61.2,30.07,SE,135,2.0,2.0,99,0.00,,,0.00,meteohub,2013-05-11 13:42:00,
2013-05-11 06:47:00,61.7,61.3,30.07,West,270,2.0,2.0,99,0.00,,,0.00,meteohub,2013-05-11 13:47:00,
2013-05-11 06:52:00,61.9,61.5,30.07,West,270,1.0,2.0,99,0.00,,,0.00,meteohub,2013-05-11 13:52:00,
2013-05-11 06:57:00,61.9,61.5,30.07,West,270,2.0,2.0,99,0.00,,,0.00,meteohub,2013-05-11 13:57:00,
2013-05-11 07:02:00,62.2,61.9,30.08,West,270,2.0,3.0,99,0.00,,,0.00,meteohub,2013-05-11 14:02:00,
2013-05-11 07:07:00,62.4,62.1,30.07,West,270,1.0,3.0,99,0.00,,,0.00,meteohub,2013-05-11 14:07:00,
2013-05-11 07:12:00,62.8,62.4,30.07,West,270,1.0,3.0,99,0.00,,,0.00,meteohub,2013-05-11 14:12:00,
2013-05-11 07:17:00,63.0,62.6,30.07,West,270,1.0,2.0,99,0.00,,,0.00,meteohub,2013-05-11 14:17:00,
2013-05-11 07:22:00,63.3,63.0,30.07,West,270,1.0,2.0,99,0.00,,,0.00,meteohub,2013-05-11 14:22:00,
2013-05-11 07:27:00,63.7,63.3,30.08,West,270,1.0,2.0,99,0.00,,,0.00,meteohub,2013-05-11 14:27:00,
2013-05-11 07:32:00,63.9,63.5,30.08,West,270,0.0,2.0,99,0.00,,,0.00,meteohub,2013-05-11 14:32:00,
2013-05-11 07:37:00,63.9,62.8,30.08,West,270,2.0,2.0,96,0.00,,,0.00,meteohub,2013-05-11 14:37:00,
2013-05-11 07:42:00,64.0,62.2,30.08,West,270,3.0,4.0,94,0.00,,,0.00,meteohub,2013-05-11 14:42:00,
2013-05-11 07:47:00,64.2,62.2,30.07,West,270,3.0,4.0,93,0.00,,,0.00,meteohub,2013-05-11 14:47:00,
2013-05-11 07:52:00,64.6,62.4,30.08,West,270,4.0,4.0,93,0.00,,,0.00,meteohub,2013-05-11 14:52:00,
2013-05-11 07:57:00,64.6,61.9,30.08,West,270,2.0,4.0,91,0.00,,,0.00,meteohub,2013-05-11 14:57:00,
2013-05-11 08:02:00,64.6,61.9,30.08,WNW,293,2.0,6.0,91,0.00,,,0.00,meteohub,2013-05-11 15:02:00,
2013-05-11 08:07:00,64.6,61.5,30.08,WNW,293,3.0,6.0,90,0.00,,,0.00,meteohub,2013-05-11 15:07:00,
2013-05-11 08:12:00,65.1,62.4,30.08,West,270,2.0,6.0,91,0.00,,,0.00,meteohub,2013-05-11 15:12:00,
2013-05-11 08:17:00,65.7,62.2,30.09,West,270,3.0,4.0,89,0.00,,,0.00,meteohub,2013-05-11 15:17:00,
2013-05-11 08:22:00,66.2,62.6,30.09,West,270,2.0,4.0,88,0.00,,,0.00,meteohub,2013-05-11 15:22:00,
2013-05-11 08:27:00,67.3,63.0,30.09,West,270,2.0,4.0,86,0.00,,,0.00,meteohub,2013-05-11 15:27:00,
2013-05-11 08:32:00,68.5,63.9,30.09,West,270,3.0,4.0,85,0.00,,,0.00,meteohub,2013-05-11 15:32:00,
2013-05-11 08:37:00,69.8,63.3,30.09,North,0,2.0,4.0,80,0.00,,,0.00,meteohub,2013-05-11 15:37:00,
2013-05-11 08:42:00,71.1,63.1,30.09,North,0,3.0,4.0,76,0.00,,,0.00,meteohub,2013-05-11 15:42:00,
2013-05-11 08:47:00,71.1,62.4,30.09,North,0,3.0,4.0,74,0.00,,,0.00,meteohub,2013-05-11 15:47:00,
2013-05-11 08:52:00,70.9,63.0,30.09,North,0,1.0,4.0,76,0.00,,,0.00,meteohub,2013-05-11 15:52:00,
2013-05-11 08:57:00,73.9,63.5,30.09,North,0,2.0,4.0,70,0.00,,,0.00,meteohub,2013-05-11 15:57:00,
2013-05-11 09:02:00,73.6,62.8,30.08,SE,135,2.0,4.0,69,0.00,,,0.00,meteohub,2013-05-11 16:02:00,
2013-05-11 09:07:00,75.2,63.9,30.09,NE,45,3.0,6.0,68,0.00,,,0.00,meteohub,2013-05-11 16:07:00,
2013-05-11 09:12:00,75.2,62.6,30.09,WNW,293,3.0,6.0,65,0.00,,,0.00,meteohub,2013-05-11 16:12:00,
2013-05-11 09:17:00,74.7,62.6,30.08,West,270,2.0,4.0,66,0.00,,,0.00,meteohub,2013-05-11 16:17:00,
2013-05-11 09:22:00,76.6,64.4,30.09,South,180,2.0,4.0,66,0.00,,,0.00,meteohub,2013-05-11 16:22:00,
2013-05-11 09:27:00,77.5,63.5,30.09,West,270,2.0,4.0,62,0.00,,,0.00,meteohub,2013-05-11 16:27:00,
2013-05-11 09:32:00,79.3,63.7,30.08,South,180,4.0,4.0,59,0.00,,,0.00,meteohub,2013-05-11 16:32:00,
2013-05-11 09:37:00,77.9,61.5,30.08,South,180,4.0,4.0,57,0.00,,,0.00,meteohub,2013-05-11 16:37:00,
2013-05-11 09:42:00,78.3,62.2,30.08,West,270,3.0,4.0,58,0.00,,,0.00,meteohub,2013-05-11 16:42:00,
2013-05-11 09:47:00,78.4,62.4,30.08,East,90,5.0,5.0,58,0.00,,,0.00,meteohub,2013-05-11 16:47:00,
2013-05-11 09:52:00,79.7,63.7,30.08,South,180,4.0,5.0,58,0.00,,,0.00,meteohub,2013-05-11 16:52:00,
2013-05-11 09:57:00,79.7,62.6,30.08,West,270,3.0,5.0,56,0.00,,,0.00,meteohub,2013-05-11 16:57:00,
2013-05-11 10:02:00,78.4,63.0,30.08,West,270,2.0,5.0,59,0.00,,,0.00,meteohub,2013-05-11 17:02:00,
2013-05-11 10:07:00,79.0,63.0,30.08,SE,135,4.0,5.0,58,0.00,,,0.00,meteohub,2013-05-11 17:07:00,
2013-05-11 10:12:00,77.7,62.8,30.08,West,270,5.0,5.0,60,0.00,,,0.00,meteohub,2013-05-11 17:12:00,
2013-05-11 10:17:00,77.2,63.1,30.08,West,270,3.0,8.0,62,0.00,,,0.00,meteohub,2013-05-11 17:17:00,
2013-05-11 10:22:00,77.5,63.0,30.08,West,270,3.0,8.0,61,0.00,,,0.00,meteohub,2013-05-11 17:22:00,
2013-05-11 10:27:00,78.1,63.5,30.07,NE,45,2.0,8.0,61,0.00,,,0.00,meteohub,2013-05-11 17:27:00,
2013-05-11 10:32:00,77.4,62.8,30.07,NW,315,6.0,8.0,61,0.00,,,0.00,meteohub,2013-05-11 17:32:00,
2013-05-11 10:37:00,75.7,63.5,30.08,West,270,8.0,8.0,66,0.00,,,0.00,meteohub,2013-05-11 17:37:00,
2013-05-11 10:42:00,75.4,63.7,30.07,NW,315,8.0,9.0,67,0.00,,,0.00,meteohub,2013-05-11 17:42:00,
2013-05-11 10:47:00,75.6,63.3,30.07,NW,315,7.0,10.0,66,0.00,,,0.00,meteohub,2013-05-11 17:47:00,
2013-05-11 10:52:00,76.5,63.9,30.07,West,270,4.0,10.0,65,0.00,,,0.00,meteohub,2013-05-11 17:52:00,
2013-05-11 10:57:00,76.3,64.0,30.07,North,0,7.0,10.0,66,0.00,,,0.00,meteohub,2013-05-11 17:57:00,
2013-05-11 11:02:00,76.8,64.2,30.07,NW,315,4.0,9.0,65,0.00,,,0.00,meteohub,2013-05-11 18:02:00,
2013-05-11 11:07:00,76.5,63.3,30.07,West,270,8.0,8.0,64,0.00,,,0.00,meteohub,2013-05-11 18:07:00,
2013-05-11 11:12:00,75.2,63.9,30.07,WNW,293,6.0,9.0,68,0.00,,,0.00,meteohub,2013-05-11 18:12:00,
2013-05-11 11:17:00,75.6,63.3,30.07,West,270,4.0,10.0,66,0.00,,,0.00,meteohub,2013-05-11 18:17:00,
2013-05-11 11:22:00,74.1,63.3,30.07,NW,315,8.0,10.0,69,0.00,,,0.00,meteohub,2013-05-11 18:22:00,
2013-05-11 11:27:00,74.1,63.3,30.07,West,270,10.0,10.0,69,0.00,,,0.00,meteohub,2013-05-11 18:27:00,
2013-05-11 11:32:00,73.9,63.5,30.06,West,270,7.0,10.0,70,0.00,,,0.00,meteohub,2013-05-11 18:32:00,
2013-05-11 11:37:00,74.1,63.3,30.06,West,270,8.0,10.0,69,0.00,,,0.00,meteohub,2013-05-11 18:37:00,
2013-05-11 11:42:00,73.4,63.0,30.06,West,270,8.0,10.0,70,0.00,,,0.00,meteohub,2013-05-11 18:42:00,
2013-05-11 11:47:00,73.2,63.3,30.06,WNW,293,8.0,9.0,71,0.00,,,0.00,meteohub,2013-05-11 18:47:00,
2013-05-11 11:52:00,73.8,63.0,30.06,NW,315,7.0,10.0,69,0.00,,,0.00,meteohub,2013-05-11 18:52:00,
2013-05-11 11:57:00,74.8,63.5,30.06,West,270,2.0,10.0,68,0.00,,,0.00,meteohub,2013-05-11 18:57:00,
2013-05-11 12:02:00,75.9,62.8,30.06,West,270,11.0,11.0,64,0.00,,,0.00,meteohub,2013-05-11 19:02:00,
2013-05-11 12:07:00,74.5,62.8,30.06,NW,315,11.0,11.0,67,0.00,,,0.00,meteohub,2013-05-11 19:07:00,
2013-05-11 12:12:00,74.5,62.8,30.06,NW,315,8.0,11.0,67,0.00,,,0.00,meteohub,2013-05-11 19:12:00,
2013-05-11 12:17:00,73.8,62.6,30.06,WNW,293,8.0,11.0,68,0.00,,,0.00,meteohub,2013-05-11 19:17:00,
2013-05-11 12:22:00,73.6,62.8,30.06,NW,315,7.0,11.0,69,0.00,,,0.00,meteohub,2013-05-11 19:22:00,
2013-05-11 12:27:00,73.6,63.1,30.05,West,270,7.0,10.0,70,0.00,,,0.00,meteohub,2013-05-11 19:27:00,
2013-05-11 12:32:00,73.2,63.3,30.05,WNW,293,8.0,10.0,71,0.00,,,0.00,meteohub,2013-05-11 19:32:00,
2013-05-11 12:37:00,74.1,63.3,30.05,West,270,7.0,10.0,69,0.00,,,0.00,meteohub,2013-05-11 19:37:00,
2013-05-11 12:42:00,74.3,63.5,30.05,WNW,293,8.0,10.0,69,0.00,,,0.00,meteohub,2013-05-11 19:42:00,
2013-05-11 12:47:00,74.8,63.1,30.05,West,270,6.0,11.0,67,0.00,,,0.00,meteohub,2013-05-11 19:47:00,
2013-05-11 12:52:00,74.7,63.0,30.05,NW,315,10.0,11.0,67,0.00,,,0.00,meteohub,2013-05-11 19:52:00,
2013-05-11 12:57:00,74.5,63.7,30.05,WNW,293,8.0,11.0,69,0.00,,,0.00,meteohub,2013-05-11 19:57:00,
2013-05-11 13:02:00,74.1,63.3,30.05,NW,315,9.0,11.0,69,0.00,,,0.00,meteohub,2013-05-11 20:02:00,
2013-05-11 13:07:00,74.5,63.7,30.04,NW,315,9.0,11.0,69,0.00,,,0.00,meteohub,2013-05-11 20:07:00,
2013-05-11 13:12:00,74.7,63.9,30.05,NW,315,9.0,11.0,69,0.00,,,0.00,meteohub,2013-05-11 20:12:00,
2013-05-11 13:17:00,75.0,63.3,30.05,NW,315,8.0,11.0,67,0.00,,,0.00,meteohub,2013-05-11 20:17:00,
2013-05-11 13:22:00,74.7,63.3,30.05,West,270,10.0,12.0,68,0.00,,,0.00,meteohub,2013-05-11 20:22:00,
2013-05-11 13:27:00,74.1,63.3,30.05,NW,315,10.0,15.0,69,0.00,,,0.00,meteohub,2013-05-11 20:27:00,
2013-05-11 13:32:00,73.9,63.5,30.04,West,270,8.0,15.0,70,0.00,,,0.00,meteohub,2013-05-11 20:32:00,
2013-05-11 13:37:00,73.4,63.0,30.04,NNW,338,11.0,15.0,70,0.00,,,0.00,meteohub,2013-05-11 20:37:00,
2013-05-11 13:42:00,73.2,62.8,30.04,NW,315,11.0,13.0,70,0.00,,,0.00,meteohub,2013-05-11 20:42:00,
2013-05-11 13:47:00,73.6,62.8,30.04,NW,315,11.0,12.0,69,0.00,,,0.00,meteohub,2013-05-11 20:47:00,
2013-05-11 13:52:00,73.8,63.7,30.04,SW,225,8.0,12.0,71,0.00,,,0.00,meteohub,2013-05-11 20:52:00,
2013-05-11 13:57:00,74.8,63.5,30.04,NW,315,10.0,13.0,68,0.00,,,0.00,meteohub,2013-05-11 20:57:00,
2013-05-11 14:02:00,74.8,63.5,30.04,North,0,13.0,13.0,68,0.00,,,0.00,meteohub,2013-05-11 21:02:00,
2013-05-11 14:07:00,75.0,63.3,30.04,WNW,293,11.0,13.0,67,0.00,,,0.00,meteohub,2013-05-11 21:07:00,
2013-05-11 14:12:00,75.4,63.1,30.04,NW,315,11.0,13.0,66,0.00,,,0.00,meteohub,2013-05-11 21:12:00,
2013-05-11 14:17:00,74.3,63.1,30.04,West,270,11.0,13.0,68,0.00,,,0.00,meteohub,2013-05-11 21:17:00,
2013-05-11 14:22:00,75.0,63.7,30.03,NW,315,11.0,12.0,68,0.00,,,0.00,meteohub,2013-05-11 21:22:00,
2013-05-11 14:27:00,74.7,63.3,30.03,WNW,293,10.0,12.0,68,0.00,,,0.00,meteohub,2013-05-11 21:27:00,
2013-05-11 14:32:00,74.1,63.7,30.02,NW,315,11.0,12.0,70,0.00,,,0.00,meteohub,2013-05-11 21:32:00,
2013-05-11 14:37:00,74.8,63.5,30.03,NW,315,8.0,12.0,68,0.00,,,0.00,meteohub,2013-05-11 21:37:00,
2013-05-11 14:42:00,75.2,63.5,30.02,NW,315,11.0,11.0,67,0.00,,,0.00,meteohub,2013-05-11 21:42:00,
2013-05-11 14:47:00,74.8,63.5,30.02,NNE,23,8.0,11.0,68,0.00,,,0.00,meteohub,2013-05-11 21:47:00,
2013-05-11 14:52:00,75.0,63.7,30.02,NW,315,7.0,12.0,68,0.00,,,0.00,meteohub,2013-05-11 21:52:00,
2013-05-11 14:57:00,75.6,63.3,30.01,NNE,23,10.0,12.0,66,0.00,,,0.00,meteohub,2013-05-11 21:57:00,
2013-05-11 15:02:00,75.9,64.2,30.01,SW,225,11.0,11.0,67,0.00,,,0.00,meteohub,2013-05-11 22:02:00,
2013-05-11 15:07:00,76.1,63.5,30.01,North,0,11.0,11.0,65,0.00,,,0.00,meteohub,2013-05-11 22:07:00,
2013-05-11 15:12:00,75.7,63.5,30.01,WNW,293,11.0,11.0,66,0.00,,,0.00,meteohub,2013-05-11 22:12:00,
2013-05-11 15:17:00,75.0,63.3,30.01,NW,315,10.0,11.0,67,0.00,,,0.00,meteohub,2013-05-11 22:17:00,
2013-05-11 15:22:00,74.7,63.9,30.01,NW,315,12.0,12.0,69,0.00,,,0.00,meteohub,2013-05-11 22:22:00,
2013-05-11 15:27:00,74.8,64.0,30.00,WNW,293,7.0,12.0,69,0.00,,,0.00,meteohub,2013-05-11 22:27:00,
2013-05-11 15:32:00,75.2,64.4,30.00,West,270,8.0,12.0,69,0.00,,,0.00,meteohub,2013-05-11 22:32:00,
2013-05-11 15:37:00,76.3,64.9,30.00,West,270,10.0,12.0,68,0.00,,,0.00,meteohub,2013-05-11 22:37:00,
2013-05-11 15:42:00,77.5,64.4,30.00,West,270,7.0,11.0,64,0.00,,,0.00,meteohub,2013-05-11 22:42:00,
2013-05-11 15:47:00,77.9,64.8,30.00,West,270,4.0,11.0,64,0.00,,,0.00,meteohub,2013-05-11 22:47:00,
2013-05-11 15:52:00,78.4,64.4,30.00,NW,315,8.0,11.0,62,0.00,,,0.00,meteohub,2013-05-11 22:52:00,
2013-05-11 15:57:00,78.8,64.2,29.99,West,270,8.0,10.0,61,0.00,,,0.00,meteohub,2013-05-11 22:57:00,
2013-05-11 16:02:00,79.3,64.2,29.99,West,270,7.0,10.0,60,0.00,,,0.00,meteohub,2013-05-11 23:02:00,
2013-05-11 16:07:00,79.2,64.0,29.99,NW,315,7.0,8.0,60,0.00,,,0.00,meteohub,2013-05-11 23:07:00,
2013-05-11 16:12:00,79.7,64.0,29.99,West,270,4.0,8.0,59,0.00,,,0.00,meteohub,2013-05-11 23:12:00,
2013-05-11 16:17:00,80.4,64.2,29.99,West,270,8.0,8.0,58,0.00,,,0.00,meteohub,2013-05-11 23:17:00,
2013-05-11 16:22:00,79.9,64.2,30.00,WNW,293,8.0,8.0,59,0.00,,,0.00,meteohub,2013-05-11 23:22:00,
2013-05-11 16:27:00,80.8,65.1,29.99,West,270,4.0,9.0,59,0.00,,,0.00,meteohub,2013-05-11 23:27:00,
2013-05-11 16:32:00,82.2,64.4,29.99,NW,315,5.0,9.0,55,0.00,,,0.00,meteohub,2013-05-11 23:32:00,
2013-05-11 16:37:00,82.8,63.3,29.99,North,0,3.0,9.0,52,0.00,,,0.00,meteohub,2013-05-11 23:37:00,
2013-05-11 16:42:00,83.3,63.3,29.99,North,0,7.0,7.0,51,0.00,,,0.00,meteohub,2013-05-11 23:42:00,
2013-05-11 16:47:00,83.5,64.0,29.99,North,0,3.0,7.0,52,0.00,,,0.00,meteohub,2013-05-11 23:47:00,
2013-05-11 16:52:00,84.2,63.5,29.99,North,0,4.0,7.0,50,0.00,,,0.00,meteohub,2013-05-11 23:52:00,
2013-05-11 16:57:00,84.2,63.5,29.99,NE,45,5.0,8.0,50,0.00,,,0.00,meteohub,2013-05-11 23:57:00,
2013-05-11 17:02:00,83.7,63.0,29.99,North,0,6.0,8.0,50,0.00,,,0.00,meteohub,2013-05-12 00:02:00,
2013-05-11 17:07:00,82.8,61.7,29.99,North,0,6.0,8.0,49,0.00,,,0.00,meteohub,2013-05-12 00:07:00,
2013-05-11 17:12:00,82.2,61.7,29.99,North,0,5.0,8.0,50,0.00,,,0.00,meteohub,2013-05-12 00:12:00,
2013-05-11 17:17:00,82.0,62.1,29.99,North,0,8.0,8.0,51,0.00,,,0.00,meteohub,2013-05-12 00:17:00,
2013-05-11 17:22:00,81.5,61.0,29.99,NE,45,4.0,8.0,50,0.00,,,0.00,meteohub,2013-05-12 00:22:00,
2013-05-11 17:27:00,81.5,61.7,29.99,North,0,5.0,8.0,51,0.00,,,0.00,meteohub,2013-05-12 00:27:00,
2013-05-11 17:32:00,80.8,61.5,29.99,North,0,6.0,8.0,52,0.00,,,0.00,meteohub,2013-05-12 00:32:00,
2013-05-11 17:37:00,80.8,62.1,29.99,NE,45,4.0,8.0,53,0.00,,,0.00,meteohub,2013-05-12 00:37:00,
2013-05-11 17:42:00,80.4,61.7,29.99,North,0,8.0,8.0,53,0.00,,,0.00,meteohub,2013-05-12 00:42:00,
2013-05-11 17:47:00,79.7,61.5,29.99,NNE,23,7.0,8.0,54,0.00,,,0.00,meteohub,2013-05-12 00:47:00,
2013-05-11 17:52:00,79.3,61.7,29.99,NE,45,5.0,9.0,55,0.00,,,0.00,meteohub,2013-05-12 00:52:00,
2013-05-11 17:57:00,79.0,61.9,29.99,NE,45,5.0,10.0,56,0.00,,,0.00,meteohub,2013-05-12 00:57:00,
2013-05-11 18:02:00,78.6,61.5,29.99,North,0,4.0,10.0,56,0.00,,,0.00,meteohub,2013-05-12 01:02:00,
2013-05-11 18:07:00,79.0,61.0,29.99,North,0,5.0,10.0,54,0.00,,,0.00,meteohub,2013-05-12 01:07:00,
2013-05-11 18:12:00,78.6,61.2,29.99,North,0,3.0,7.0,55,0.00,,,0.00,meteohub,2013-05-12 01:12:00,
2013-05-11 18:17:00,79.0,61.0,29.99,NNE,23,4.0,7.0,54,0.00,,,0.00,meteohub,2013-05-12 01:17:00,
2013-05-11 18:22:00,79.2,60.6,29.99,NE,45,4.0,6.0,53,0.00,,,0.00,meteohub,2013-05-12 01:22:00,
2013-05-11 18:27:00,79.0,61.0,29.99,North,0,4.0,4.0,54,0.00,,,0.00,meteohub,2013-05-12 01:27:00,
2013-05-11 18:32:00,78.3,63.3,29.99,West,270,9.0,9.0,60,0.00,,,0.00,meteohub,2013-05-12 01:32:00,
2013-05-11 18:37:00,75.6,63.9,29.99,WNW,293,8.0,9.0,67,0.00,,,0.00,meteohub,2013-05-12 01:37:00,
2013-05-11 18:42:00,73.8,63.7,29.99,NW,315,8.0,10.0,71,0.00,,,0.00,meteohub,2013-05-12 01:42:00,
2013-05-11 18:47:00,73.0,63.5,29.99,NW,315,5.0,10.0,72,0.00,,,0.00,meteohub,2013-05-12 01:47:00,
2013-05-11 18:52:00,72.3,63.1,29.99,NW,315,9.0,10.0,73,0.00,,,0.00,meteohub,2013-05-12 01:52:00,
2013-05-11 18:57:00,72.0,63.7,29.99,NW,315,6.0,9.0,75,0.00,,,0.00,meteohub,2013-05-12 01:57:00,
2013-05-11 19:02:00,71.2,63.3,30.00,NW,315,8.0,9.0,76,0.00,,,0.00,meteohub,2013-05-12 02:02:00,
2013-05-11 19:07:00,70.7,63.1,29.99,NW,315,8.0,9.0,77,0.00,,,0.00,meteohub,2013-05-12 02:07:00,
2013-05-11 19:12:00,70.0,63.1,30.00,NW,315,9.0,9.0,79,0.00,,,0.00,meteohub,2013-05-12 02:12:00,
2013-05-11 19:17:00,69.4,63.3,30.00,West,270,7.0,9.0,81,0.00,,,0.00,meteohub,2013-05-12 02:17:00,
2013-05-11 19:22:00,68.9,63.1,30.00,West,270,9.0,10.0,82,0.00,,,0.00,meteohub,2013-05-12 02:22:00,
2013-05-11 19:27:00,68.2,63.5,30.00,West,270,6.0,11.0,85,0.00,,,0.00,meteohub,2013-05-12 02:27:00,
2013-05-11 19:32:00,67.8,63.5,30.00,NW,315,3.0,11.0,86,0.00,,,0.00,meteohub,2013-05-12 02:32:00,
2013-05-11 19:37:00,67.6,63.3,30.01,NW,315,5.0,11.0,86,0.00,,,0.00,meteohub,2013-05-12 02:37:00,
2013-05-11 19:42:00,67.5,63.1,30.00,NW,315,4.0,8.0,86,0.00,,,0.00,meteohub,2013-05-12 02:42:00,
2013-05-11 19:47:00,67.3,63.3,30.01,North,0,3.0,5.0,87,0.00,,,0.00,meteohub,2013-05-12 02:47:00,
2013-05-11 19:52:00,67.3,63.3,30.01,NW,315,4.0,5.0,87,0.00,,,0.00,meteohub,2013-05-12 02:52:00,
2013-05-11 19:57:00,66.9,63.3,30.00,NW,315,4.0,4.0,88,0.00,,,0.00,meteohub,2013-05-12 02:57:00,
2013-05-11 20:02:00,66.7,63.3,30.00,NW,315,4.0,6.0,89,0.00,,,0.00,meteohub,2013-05-12 03:02:00,
2013-05-11 20:07:00,66.6,63.1,30.01,NW,315,4.0,6.0,89,0.00,,,0.00,meteohub,2013-05-12 03:07:00,
2013-05-11 20:12:00,66.4,63.3,30.01,NW,315,4.0,6.0,90,0.00,,,0.00,meteohub,2013-05-12 03:12:00,
2013-05-11 20:17:00,66.4,63.3,30.01,NW,315,4.0,5.0,90,0.00,,,0.00,meteohub,2013-05-12 03:17:00,
2013-05-11 20:22:00,66.4,63.3,30.01,NW,315,3.0,5.0,90,0.00,,,0.00,meteohub,2013-05-12 03:22:00,
2013-05-11 20:27:00,66.4,63.3,30.01,West,270,3.0,5.0,90,0.00,,,0.00,meteohub,2013-05-12 03:27:00,
2013-05-11 20:32:00,66.2,63.1,30.02,NW,315,2.0,5.0,90,0.00,,,0.00,meteohub,2013-05-12 03:32:00,
2013-05-11 20:37:00,66.2,63.1,30.03,NW,315,2.0,4.0,90,0.00,,,0.00,meteohub,2013-05-12 03:37:00,
2013-05-11 20:42:00,66.0,63.0,30.02,NW,315,3.0,4.0,90,0.00,,,0.00,meteohub,2013-05-12 03:42:00,
2013-05-11 20:47:00,66.0,63.0,30.02,West,270,3.0,4.0,90,0.00,,,0.00,meteohub,2013-05-12 03:47:00,
2013-05-11 20:52:00,65.8,62.8,30.03,West,270,1.0,4.0,90,0.00,,,0.00,meteohub,2013-05-12 03:52:00,
2013-05-11 20:57:00,65.5,62.8,30.02,West,270,2.0,4.0,91,0.00,,,0.00,meteohub,2013-05-12 03:57:00,
2013-05-11 21:01:00,65.3,62.6,30.02,West,270,1.0,3.0,91,0.00,,,0.00,meteohub,2013-05-12 04:01:00,
2013-05-11 21:06:00,65.3,63.0,30.03,West,270,1.0,2.0,92,0.00,,,0.00,meteohub,2013-05-12 04:06:00,
2013-05-11 21:11:00,65.1,62.8,30.03,West,270,0.0,2.0,92,0.00,,,0.00,meteohub,2013-05-12 04:11:00,
2013-05-11 21:16:00,65.1,63.0,30.03,West,270,1.0,2.0,93,0.00,,,0.00,meteohub,2013-05-12 04:16:00,
2013-05-11 21:21:00,65.1,63.0,30.03,West,270,3.0,3.0,93,0.00,,,0.00,meteohub,2013-05-12 04:21:00,
2013-05-11 21:26:00,64.9,63.1,30.04,West,270,2.0,3.0,94,0.00,,,0.00,meteohub,2013-05-12 04:26:00,
2013-05-11 21:31:00,64.8,63.0,30.04,West,270,3.0,4.0,94,0.00,,,0.00,meteohub,2013-05-12 04:31:00,
2013-05-11 21:36:00,64.8,63.0,30.03,West,270,2.0,4.0,94,0.00,,,0.00,meteohub,2013-05-12 04:36:00,
2013-05-11 21:41:00,64.6,62.8,30.04,West,270,3.0,4.0,94,0.00,,,0.00,meteohub,2013-05-12 04:41:00,
2013-05-11 21:47:00,64.6,62.8,30.04,West,270,2.0,4.0,94,0.00,,,0.00,meteohub,2013-05-12 04:47:00,
2013-05-11 21:51:00,64.4,63.0,30.04,West,270,3.0,3.0,95,0.00,,,0.00,meteohub,2013-05-12 04:51:00,
2013-05-11 21:56:00,64.4,63.0,30.05,West,270,2.0,4.0,95,0.00,,,0.00,meteohub,2013-05-12 04:56:00,
2013-05-11 22:01:00,64.2,63.1,30.05,West,270,3.0,4.0,96,0.00,,,0.00,meteohub,2013-05-12 05:01:00,
2013-05-11 22:06:00,64.0,63.0,30.04,West,270,4.0,4.0,96,0.00,,,0.00,meteohub,2013-05-12 05:06:00,
2013-05-11 22:11:00,64.0,63.1,30.05,West,270,3.0,4.0,97,0.00,,,0.00,meteohub,2013-05-12 05:11:00,
2013-05-11 22:16:00,64.0,63.1,30.05,West,270,4.0,4.0,97,0.00,,,0.00,meteohub,2013-05-12 05:16:00,
2013-05-11 22:21:00,63.9,63.0,30.05,West,270,4.0,6.0,97,0.00,,,0.00,meteohub,2013-05-12 05:21:00,
2013-05-11 22:26:00,63.5,62.6,30.05,West,270,1.0,6.0,97,0.00,,,0.00,meteohub,2013-05-12 05:26:00,
2013-05-11 22:31:00,63.3,62.4,30.05,West,270,2.0,6.0,97,0.00,,,0.00,meteohub,2013-05-12 05:31:00,
2013-05-11 22:36:00,63.3,62.8,30.06,West,270,3.0,4.0,98,0.00,,,0.00,meteohub,2013-05-12 05:36:00,
2013-05-11 22:41:00,63.1,62.6,30.06,West,270,4.0,5.0,98,0.00,,,0.00,meteohub,2013-05-12 05:41:00,
2013-05-11 22:46:00,63.0,62.4,30.06,West,270,3.0,5.0,98,0.00,,,0.00,meteohub,2013-05-12 05:46:00,
2013-05-11 22:51:00,63.0,62.6,30.06,West,270,4.0,5.0,99,0.00,,,0.00,meteohub,2013-05-12 05:51:00,
2013-05-11 22:56:00,62.8,62.4,30.06,West,270,4.0,4.0,99,0.00,,,0.00,meteohub,2013-05-12 05:56:00,
2013-05-11 23:01:00,62.8,62.4,30.06,West,270,2.0,4.0,99,0.00,,,0.00,meteohub,2013-05-12 06:01:00,
2013-05-11 23:06:00,62.4,62.1,30.06,West,270,4.0,6.0,99,0.00,,,0.00,meteohub,2013-05-12 06:06:00,
2013-05-11 23:11:00,62.4,62.1,30.06,West,270,2.0,6.0,99,0.00,,,0.00,meteohub,2013-05-12 06:11:00,
2013-05-11 23:16:00,62.2,61.9,30.06,West,270,3.0,6.0,99,0.00,,,0.00,meteohub,2013-05-12 06:16:00,
2013-05-11 23:21:00,62.2,61.9,30.06,West,270,3.0,4.0,99,0.00,,,0.00,meteohub,2013-05-12 06:21:00,
2013-05-11 23:27:00,62.4,62.1,30.06,West,270,4.0,5.0,99,0.00,,,0.00,meteohub,2013-05-12 06:27:00,
2013-05-11 23:32:00,62.4,62.1,30.06,West,270,5.0,5.0,99,0.00,,,0.00,meteohub,2013-05-12 06:32:00,
2013-05-11 23:37:00,62.4,62.1,30.06,West,270,4.0,5.0,99,0.00,,,0.00,meteohub,2013-05-12 06:37:00,
2013-05-11 23:42:00,62.4,62.1,30.06,WNW,293,4.0,5.0,99,0.00,,,0.00,meteohub,2013-05-12 06:42:00,
2013-05-11 23:47:00,62.4,62.1,30.06,WNW,293,4.0,5.0,99,0.00,,,0.00,meteohub,2013-05-12 06:47:00,
2013-05-11 23:52:00,62.4,62.1,30.06,WNW,293,3.0,4.0,99,0.00,,,0.00,meteohub,2013-05-12 06:52:00,
2013-05-11 23:57:00,62.2,61.9,30.06,NW,315,2.0,7.0,99,0.00,,,0.00,meteohub,2013-05-12 06:57:00,